Wind_Speed
29 31 32 31 29 27 24 22 20 18 15 15 13 13 13 12 11 15 18 17 22 10 27 29 28 25 16 13 4 11 9 2 4 5 6 8 12 8 17 20 22 20 16 13 12 13 16 6 4 5 6 15 15 13
32 32 31 30 26 22 20 18 15 13 10 12 13 12 11 12 13 15 17 15 17 20 20 25 28 28 25 29 26 12 13 9 4 3 3 4 6 5 12 13 7 18 16 12 6 4 6 5 2 2 4 6 11 1
31 30 28 24 20 19 15 11 8 8 10 12 10 10 9 10 9 11 13 12 13 15 28 27 22 12 23 31 22 15 12 4 5 5 4 3 6 4 5 5 13 3 8 4 10 5 8 13 14 13 17 8 5 11
25 26 22 18 15 13 11 10 9 11 9 7 10 8 8 7 6 8 11 10 12 7 6 8 7 8 7 14 26 34 22 6 8 8 3 3 4 7 4 4 4 5 5 11 13 12 15 13 16 15 16 14 14 21
20 20 16 15 14 13 15 13 11 10 9 9 6 7 8 8 7 9 12 13 14 8 9 20 26 3 4 22 18 23 25 22 6 5 3 2 6 6 1 3 3 7 4 5 8 14 16 11 12 8 12 11 13 20
19 16 16 13 16 15 16 10 11 12 11 8 6 4 5 7 8 6 4 4 12 16 5 4 11 4 4 8 17 20 16 19 9 5 2 2 13 7 1 2 7 12 6 6 7 14 24 17 14 8 7 8 14 20
20 16 13 14 17 15 14 15 14 12 10 6 6 8 8 10 9 5 5 7 14 14 3 4 4 2 9 16 16 16 13 8 11 5 4 3 5 6 3 3 12 6 9 9 18 24 21 17 14 4 5 7 15 16
20 18 16 15 16 15 16 17 17 13 9 8 9 11 12 12 11 9 7 10 11 7 5 3 4 4 13 17 14 10 7 4 6 5 1 3 6 3 4 8 11 13 21 28 25 25 26 21 16 12 1 3 15 11
19 18 16 13 15 17 16 15 17 15 11 9 9 8 5 1 3 6 13 2 5 7 2 3 3 3 2 11 14 4 7 5 5 2 1 3 3 4 5 11 14 14 14 21 28 24 20 19 12 4 3 7 11 8
19 19 18 16 15 16 16 18 20 17 11 10 6 3 2 1 9 7 2 4 4 3 3 3 6 3 4 11 4 7 7 1 0 1 7 3 3 15 17 21 18 16 26 27 28 17 20 13 10 5 8 7 8 7
17 19 18 16 16 16 17 18 22 18 11 7 6 4 8 11 3 3 2 3 4 3 4 6 8 6 1 2 4 11 4 6 2 2 1 3 5 8 14 18 16 12 13 13 14 16 13 9 7 4 7 5 7 8
18 17 18 18 18 19 20 20 21 18 13 10 8 8 8 4 3 4 2 1 3 3 4 6 11 9 6 2 4 5 3 2 4 4 3 3 3 12 13 9 5 10 13 14 13 12 10 10 9 8 9 9 9 11
14 15 18 21 24 24 22 20 18 15 10 5 4 4 5 4 3 7 7 2 3 7 6 11 8 5 4 2 3 2 3 3 5 4 3 3 4 8 10 6 10 12 12 13 13 12 12 13 12 12 12 12 10 11
15 18 25 25 28 23 20 17 15 11 6 4 6 6 5 4 5 3 7 6 7 8 13 14 8 4 5 2 4 4 5 3 5 4 4 4 11 7 6 6 11 13 12 13 13 13 14 13 13 13 13 11 11 12
19 18 28 30 27 21 19 17 15 10 5 4 4 4 4 9 12 10 9 8 7 10 6 11 6 4 5 5 5 4 4 5 5 3 2 7 6 6 10 10 10 10 11 13 12 14 15 13 13 14 14 12 12 11
19 22 28 28 24 18 18 15 15 10 4 3 4 5 13 9 14 19 16 13 13 11 6 4 3 3 7 4 4 8 4 5 3 3 8 6 7 8 10 10 9 10 11 12 11 11 10 10 9 9 9 11 11 10
19 16 26 29 24 13 17 13 7 6 6 6 6 11 13 10 15 19 18 19 16 7 4 3 5 5 2 5 5 4 3 3 8 11 8 8 9 9 9 9 10 10 11 10 10 9 8 9 9 9 7 5 7 8
18 22 25 28 26 11 11 11 5 5 6 9 9 16 16 13 17 19 18 19 13 10 10 4 5 8 5 4 3 1 5 7 6 6 8 8 7 8 9 8 8 8 7 8 7 7 6 7 8 11 9 6 3 5
20 22 23 24 20 8 6 6 5 5 6 7 12 14 13 14 17 16 16 15 11 9 4 5 5 6 5 7 11 11 8 7 5 5 5 7 9 8 8 9 8 8 8 9 9 7 8 7 5 6 7 8 8 6
16 17 18 16 13 4 4 5 6 4 7 8 12 14 10 15 16 16 19 20 18 16 12 6 5 11 12 9 8 8 7 7 4 5 6 6 6 8 10 10 9 9 8 8 8 10 9 9 10 9 9 9 9 9
10 13 11 10 6 8 4 5 4 4 6 6 13 9 9 12 18 20 20 16 19 17 11 14 13 10 10 10 10 8 8 8 8 7 6 7 11 13 13 12 12 11 11 11 12 12 14 14 13 12 11 10 10 9
11 11 8 8 7 4 4 7 4 6 5 6 9 9 8 11 13 14 14 12 6 8 8 11 12 11 12 12 12 12 12 12 10 10 10 7 7 7 6 7 8 8 9 10 11 12 13 13 14 14 14 14 14 12
7 7 5 8 4 7 3 7 4 6 4 5 7 5 6 7 10 10 5 7 8 13 15 17 22 24 23 24 23 21 19 17 16 15 14 11 8 6 5 6 6 7 8 10 12 13 15 16 15 15 13 13 12 12
7 4 5 5 8 5 5 5 4 4 4 4 3 2 3 5 8 6 4 9 13 13 15 14 13 15 17 21 23 24 22 19 16 14 14 11 8 7 5 5 6 7 9 12 13 14 14 13 13 11 12 13 13 12
3 5 4 6 4 4 4 4 4 3 3 4 2 2 3 4 2 3 3 11 18 16 14 14 17 18 19 18 19 20 21 21 19 16 14 12 10 9 7 8 9 10 12 15 15 15 14 13 12 12 13 13 13 12
3 4 4 5 3 4 5 5 6 5 4 4 4 3 3 3 3 5 4 13 12 13 14 14 14 15 17 18 18 19 19 18 16 13 12 11 10 11 11 12 13 13 14 15 15 15 14 13 13 14 14 14 14 14
3 4 2 2 1 2 1 2 2 2 3 4 3 4 3 3 6 6 10 11 10 12 12 13 14 15 15 15 15 15 16 16 15 14 11 9 10 10 12 14 15 15 16 15 15 15 15 15 14 14 14 14 15 15
2 2 3 3 2 1 3 3 3 3 3 2 2 5 4 4 4 8 8 11 11 10 11 13 15 16 17 17 15 15 16 16 14 14 11 8 10 12 16 15 15 18 15 15 15 14 12 13 13 14 15 15 16 15
1 3 2 2 1 1 2 4 6 5 6 5 3 3 4 5 7 6 8 9 10 10 12 14 18 17 16 16 15 15 15 18 19 19 18 16 17 17 17 17 16 15 15 13 14 12 14 14 13 14 14 16 16 16
5 3 4 3 3 3 5 6 10 11 11 7 10 16 17 14 12 10 10 13 14 15 13 12 13 16 19 18 18 16 14 16 17 17 17 17 17 17 17 17 17 16 15 15 15 15 16 16 15 15 16 16 17 17
5 3 3 2 4 5 10 12 13 11 11 18 14 14 10 5 5 7 11 11 10 12 13 14 14 17 18 17 15 14 13 14 15 16 17 15 16 17 17 17 17 17 17 17 16 15 16 16 15 15 15 15 15 14
6 6 7 4 4 7 8 6 5 6 2 3 4 4 4 3 2 5 11 12 13 13 13 13 14 15 14 13 12 13 13 13 14 17 17 16 15 15 14 15 15 15 15 15 14 14 14 15 15 15 14 14 14 13
5 9 7 4 3 3 7 6 4 4 3 1 2 2 2 4 5 8 9 11 12 12 12 11 11 12 12 13 15 15 15 14 16 20 19 18 18 17 15 15 16 17 16 16 16 15 15 15 15 15 15 15 14 14
Wind_Direction
327 326 322 317 312 309 305 301 298 297 292 298 287 282 281 268 261 257 260 243 232 253 269 270 269 267 254 268 288 333 313 184 273 246 225 229 243 223 215 180 186 195 197 210 228 216 226 5 209 236 353 328 311 274
328 327 325 322 319 315 307 309 306 299 292 300 295 295 295 274 262 255 256 253 246 249 260 272 270 260 254 250 255 258 294 328 280 306 343 316 270 258 216 187 166 197 209 210 241 190 86 74 91 45 36 358 353 113
329 333 332 331 331 327 322 319 311 310 293 300 294 297 300 293 272 244 259 247 268 266 284 269 271 282 247 235 226 234 240 234 260 340 309 291 278 324 240 258 152 101 127 148 167 126 94 102 86 74 76 76 74 79
339 345 346 346 352 358 352 336 308 318 323 310 305 293 301 284 281 253 257 262 246 272 282 300 334 280 250 228 220 220 221 302 315 302 260 268 278 343 350 355 6 1 300 146 102 127 110 81 76 79 85 80 84 89
1 4 3 5 4 2 2 356 354 345 327 317 304 301 290 283 273 277 271 262 259 243 300 303 306 284 274 210 207 210 219 225 290 315 254 281 308 309 87 130 49 344 343 210 163 149 118 94 70 57 72 80 71 75
359 356 353 359 0 353 356 2 345 336 332 311 294 305 285 311 326 313 283 255 242 230 276 300 318 301 327 181 192 195 196 198 228 289 300 244 288 286 280 102 10 340 281 251 116 123 106 104 91 60 67 86 89 83
359 5 3 359 358 3 1 0 353 342 336 327 300 296 301 303 312 274 301 293 317 196 240 267 290 18 107 112 130 139 161 183 223 260 247 253 258 269 56 47 339 16 69 111 128 122 90 89 80 29 71 90 81 82
19 17 12 17 14 12 4 355 351 345 335 320 310 304 302 305 303 294 308 262 249 215 271 289 279 243 170 149 127 153 165 200 230 247 174 264 279 75 64 28 30 92 89 78 79 97 101 106 106 70 310 150 88 65
15 12 10 4 4 11 5 358 352 347 336 325 323 315 310 251 246 300 331 360 224 232 286 258 287 71 360 87 111 148 187 213 191 153 288 350 355 53 49 41 37 69 89 97 87 84 93 98 129 149 75 54 81 86
16 13 10 10 6 4 5 360 355 352 342 336 351 313 275 282 305 308 182 185 199 222 247 258 310 317 354 125 98 182 211 167 94 152 116 17 72 52 48 50 56 93 102 95 86 82 74 47 39 44 60 46 61 58
11 11 16 12 14 13 7 4 355 359 13 2 341 309 299 308 306 246 275 243 158 215 220 257 293 325 77 212 170 206 165 172 110 155 345 51 23 63 66 56 46 77 116 134 149 145 150 161 161 120 84 79 76 77
24 23 17 17 8 356 351 351 350 354 340 321 315 317 329 317 281 272 249 241 292 36 338 301 323 308 301 280 246 159 228 168 93 116 65 65 10 50 93 90 61 78 91 99 101 106 113 109 102 96 86 73 66 60
20 13 4 353 344 339 339 338 339 342 347 4 353 321 332 349 341 1 11 18 344 343 347 324 320 330 281 246 253 332 74 91 143 48 65 70 104 59 56 58 84 84 83 84 86 86 83 80 73 67 69 72 65 65
4 2 2 2 357 351 351 351 352 3 34 27 12 12 10 354 350 339 342 331 310 316 311 312 303 352 343 15 357 16 44 34 66 59 49 70 66 50 62 61 78 81 84 83 79 77 71 67 66 63 62 66 62 54
359 1 5 1 355 355 4 3 3 25 45 52 35 20 342 300 296 323 333 316 324 287 295 299 276 339 19 51 350 359 50 67 37 54 68 86 72 57 73 70 73 75 76 75 75 70 63 58 63 64 59 54 57 55
353 2 2 359 360 360 2 3 14 34 33 55 57 359 349 351 358 2 4 358 352 333 301 268 352 27 37 5 33 26 43 42 74 76 88 83 70 68 71 65 62 61 63 62 59 58 57 47 51 54 52 52 52 52
352 353 350 356 2 359 9 16 16 18 19 23 11 13 359 355 354 355 354 355 348 341 15 6 40 27 352 29 38 19 43 63 80 92 84 70 62 54 46 43 44 43 43 42 38 41 43 41 47 39 31 36 42 37
343 346 349 351 356 4 14 17 21 30 26 21 359 355 350 354 352 359 356 357 11 23 34 47 10 27 48 42 46 349 36 62 59 56 63 56 45 36 28 26 27 26 21 22 18 16 8 8 12 24 23 18 350 10
332 336 341 347 353 5 16 15 27 20 17 1 353 357 357 1 10 8 16 21 25 31 49 40 57 43 53 42 35 41 40 43 47 60 55 43 30 20 12 15 15 15 19 23 14 360 354 1 7 8 12 16 12 10
316 326 335 344 4 14 21 19 15 359 8 344 354 353 5 8 8 22 31 32 45 46 39 46 53 46 45 29 17 21 26 27 35 113 86 33 12 14 5 8 6 15 29 43 36 39 34 35 26 14 2 354 344 342
339 344 352 12 26 44 56 11 22 7 335 347 356 4 12 20 27 32 28 40 61 44 54 42 37 30 39 44 40 26 39 46 53 54 46 29 31 31 28 34 36 40 40 35 30 22 24 22 11 5 360 350 350 344
347 356 11 22 25 35 52 15 353 343 344 346 6 15 24 22 17 9 9 32 42 29 24 23 26 30 38 39 38 46 43 38 30 15 7 4 11 12 5 20 31 33 29 22 13 5 358 349 342 340 330 322 325 316
1 19 19 13 18 30 29 9 21 14 13 17 16 29 12 356 349 1 49 20 23 33 44 56 74 68 63 58 57 51 49 42 33 26 22 23 31 49 49 44 36 25 7 357 353 344 339 337 331 332 329 328 326 322
30 34 19 20 17 17 360 22 14 9 42 29 18 13 333 337 336 37 38 24 28 56 67 62 57 60 56 50 43 35 29 23 20 17 16 8 10 17 24 10 1 355 355 344 340 339 338 337 340 336 333 330 327 323
2 22 14 5 6 348 12 13 16 21 33 28 34 54 20 343 43 64 42 16 45 61 57 60 57 51 45 38 30 22 18 14 8 3 3 1 347 333 336 339 339 341 346 346 341 338 334 332 331 331 331 331 328 319
64 33 27 10 15 348 0 352 14 6 346 357 26 351 330 320 59 57 50 10 38 46 48 45 42 44 38 29 19 11 5 3 4 0 355 0 356 350 341 335 333 329 332 334 329 327 322 321 321 323 323 324 326 319
44 34 25 1 3 347 301 331 330 332 347 359 354 337 334 41 48 14 7 31 52 45 47 45 41 38 31 22 16 10 5 7 5 359 350 354 0 358 354 342 334 327 329 327 321 320 315 313 313 316 318 319 320 322
14 344 338 2 329 325 339 354 357 360 355 358 291 29 44 29 47 33 59 65 67 52 34 33 29 23 18 9 5 6 7 7 5 359 359 354 349 345 341 341 331 331 334 327 327 329 324 320 317 318 321 320 320 321
349 343 307 322 131 150 10 6 9 13 344 322 32 74 97 86 79 67 44 39 42 37 26 20 19 13 7 8 13 10 7 8 6 7 7 3 358 355 350 348 348 347 344 341 339 342 334 334 335 329 321 318 315 313
30 345 302 317 6 69 33 32 67 51 50 80 106 111 106 95 83 63 38 16 16 28 29 21 13 11 6 5 7 11 8 17 18 13 4 357 349 343 345 346 345 343 340 337 332 326 331 332 324 315 318 320 320 321
334 329 300 298 60 89 113 104 89 71 84 95 104 112 119 102 57 58 34 22 19 10 8 7 7 7 9 9 10 12 12 6 7 5 359 353 344 342 344 344 343 343 341 341 338 335 332 333 332 330 329 329 331 331
357 356 355 24 92 146 156 161 93 106 110 101 128 163 181 234 89 55 19 17 8 5 4 6 8 10 15 18 14 9 8 357 351 359 2 4 1 0 4 358 359 357 356 355 353 351 350 348 346 347 344 342 339 340
355 23 38 59 115 177 215 200 131 109 127 238 90 114 72 27 60 31 11 12 13 9 6 8 9 9 16 16 13 8 3 359 352 351 359 18 17 23 20 11 12 8 6 2 360 358 355 354 352 349 347 346 344 343
Height
1473 1467 1461 1456 1452 1449 1445 1443 1441 1440 1439 1438 1437 1437 1436 1437 1437 1437 1437 1438 1438 1435 1427 1426 1424 1423 1423 1424 1419 1411 1406 1404 1401 1393 1379 1367 1351 1341 1339 1340 1358 1364 1368 1363 1358 1371 1377 1380 1378 1375 1379 1375 1371 1366
1469 1462 1456 1450 1446 1442 1440 1438 1437 1435 1435 1435 1434 1433 1432 1432 1432 1432 1432 1433 1432 1433 1423 1418 1416 1417 1415 1417 1420 1419 1412 1409 1408 1399 1390 1385 1363 1346 1336 1346 1342 1356 1348 1351 1361 1364 1379 1381 1381 1380 1378 1382 1377 1371
1463 1458 1452 1446 1442 1439 1436 1435 1434 1433 1432 1431 1431 1430 1429 1428 1427 1428 1429 1429 1429 1426 1417 1407 1402 1401 1402 1406 1411 1415 1411 1412 1410 1407 1404 1395 1383 1361 1351 1335 1337 1354 1355 1356 1372 1381 1381 1383 1384 1382 1377 1388 1387 1378
1459 1455 1449 1446 1442 1439 1436 1434 1433 1431 1430 1429 1428 1427 1427 1426 1426 1426 1425 1426 1426 1424 1417 1399 1396 1398 1398 1399 1402 1403 1408 1408 1408 1407 1403 1399 1387 1369 1364 1359 1360 1371 1369 1364 1373 1381 1383 1386 1383 1387 1388 1393 1395 1387
1458 1454 1450 1447 1444 1441 1438 1435 1432 1431 1429 1428 1426 1426 1425 1424 1423 1423 1422 1421 1422 1425 1411 1399 1392 1389 1387 1390 1395 1400 1405 1410 1410 1406 1401 1396 1389 1382 1373 1374 1383 1385 1381 1364 1364 1376 1377 1387 1387 1393 1390 1397 1397 1390
1458 1455 1452 1449 1445 1441 1438 1435 1433 1431 1429 1427 1426 1425 1424 1423 1422 1421 1419 1418 1418 1419 1417 1404 1392 1388 1387 1385 1390 1397 1403 1407 1409 1405 1399 1396 1390 1391 1370 1380 1389 1386 1383 1382 1377 1382 1383 1389 1393 1397 1400 1403 1400 1396
1458 1455 1452 1449 1445 1442 1439 1436 1433 1430 1428 1426 1425 1424 1423 1422 1422 1422 1420 1418 1415 1415 1416 1405 1392 1386 1387 1388 1393 1399 1403 1406 1406 1403 1397 1392 1390 1375 1381 1388 1389 1386 1382 1381 1382 1384 1387 1393 1399 1405 1405 1406 1400 1398
1460 1457 1453 1450 1446 1443 1440 1437 1433 1430 1428 1426 1424 1422 1421 1420 1419 1416 1413 1413 1414 1414 1412 1406 1396 1385 1386 1389 1392 1399 1401 1402 1401 1395 1395 1391 1382 1380 1389 1393 1391 1390 1388 1388 1390 1390 1394 1402 1406 1405 1410 1413 1403 1405
1462 1459 1455 1451 1448 1444 1441 1437 1434 1431 1427 1424 1422 1420 1419 1418 1418 1415 1413 1412 1411 1412 1409 1407 1393 1383 1382 1383 1390 1397 1399 1393 1389 1391 1392 1391 1389 1392 1396 1396 1394 1393 1394 1397 1395 1398 1404 1405 1412 1413 1413 1411 1406 1408
1465 1461 1456 1452 1448 1445 1442 1439 1435 1430 1427 1424 1422 1421 1418 1418 1415 1415 1413 1414 1412 1410 1409 1404 1391 1384 1384 1380 1389 1397 1390 1385 1390 1392 1392 1394 1394 1397 1398 1399 1399 1400 1400 1402 1406 1408 1409 1410 1410 1412 1410 1410 1408 1408
1466 1462 1458 1454 1450 1447 1444 1440 1435 1430 1427 1427 1425 1422 1418 1415 1414 1413 1409 1407 1405 1406 1406 1400 1391 1387 1385 1382 1380 1383 1380 1377 1387 1388 1387 1398 1401 1403 1404 1403 1403 1405 1408 1411 1411 1414 1413 1413 1416 1413 1409 1412 1411 1411
1469 1464 1460 1456 1453 1449 1444 1440 1435 1432 1429 1427 1425 1422 1418 1416 1413 1411 1401 1400 1397 1401 1402 1397 1390 1387 1384 1382 1377 1375 1369 1370 1382 1385 1390 1403 1410 1409 1409 1408 1410 1410 1410 1412 1412 1413 1416 1415 1414 1413 1411 1411 1411 1408
1470 1466 1462 1457 1453 1448 1443 1438 1435 1431 1427 1426 1426 1425 1423 1418 1415 1411 1407 1404 1404 1400 1399 1397 1390 1386 1381 1379 1373 1369 1369 1380 1377 1389 1407 1411 1413 1414 1414 1414 1414 1413 1414 1414 1415 1414 1413 1414 1413 1412 1411 1411 1413 1413
1472 1468 1463 1457 1451 1446 1441 1438 1434 1430 1429 1429 1430 1428 1430 1425 1423 1417 1413 1410 1410 1405 1401 1398 1391 1386 1383 1377 1376 1373 1376 1375 1387 1404 1412 1416 1417 1417 1417 1418 1417 1417 1417 1416 1416 1417 1416 1416 1415 1415 1414 1415 1414 1413
1472 1468 1463 1457 1452 1446 1442 1439 1435 1432 1434 1435 1438 1439 1434 1430 1424 1418 1414 1411 1407 1403 1406 1396 1390 1387 1383 1385 1387 1385 1384 1400 1409 1415 1418 1421 1421 1420 1421 1422 1421 1422 1422 1421 1421 1420 1419 1420 1418 1418 1417 1418 1415 1416
1472 1467 1463 1458 1452 1448 1444 1441 1438 1436 1438 1439 1440 1437 1434 1427 1421 1416 1414 1410 1408 1403 1400 1397 1390 1388 1392 1395 1393 1399 1404 1414 1420 1421 1423 1424 1425 1425 1425 1425 1425 1424 1423 1421 1422 1421 1422 1422 1420 1420 1420 1420 1419 1419
1473 1470 1464 1458 1453 1449 1446 1443 1442 1442 1442 1442 1442 1439 1436 1431 1428 1421 1417 1414 1410 1404 1400 1397 1401 1405 1399 1403 1414 1421 1423 1423 1422 1424 1425 1426 1426 1427 1426 1425 1424 1423 1422 1422 1422 1421 1423 1423 1422 1421 1422 1422 1421 1423
1473 1469 1464 1459 1454 1450 1449 1447 1447 1448 1447 1447 1444 1443 1439 1435 1431 1426 1422 1418 1413 1410 1408 1411 1410 1412 1415 1422 1426 1429 1426 1426 1425 1426 1426 1426 1427 1426 1426 1426 1425 1425 1425 1424 1424 1424 1425 1425 1421 1421 1422 1423 1422 1420
1472 1468 1465 1461 1456 1453 1454 1454 1453 1452 1452 1452 1449 1446 1442 1437 1435 1431 1427 1423 1420 1417 1415 1416 1419 1424 1429 1432 1431 1430 1430 1430 1429 1428 1429 1429 1428 1428 1428 1427 1427 1426 1426 1425 1426 1427 1427 1424 1424 1424 1424 1423 1421 1421
1471 1468 1465 1462 1459 1458 1458 1458 1457 1457 1456 1456 1452 1449 1446 1443 1439 1435 1432 1429 1426 1423 1426 1430 1435 1437 1437 1438 1437 1435 1433 1432 1431 1430 1431 1433 1432 1431 1430 1429 1428 1428 1428 1430 1431 1429 1427 1426 1425 1424 1423 1424 1424 1421
1469 1467 1464 1462 1461 1460 1462 1463 1462 1462 1460 1458 1456 1453 1451 1448 1444 1441 1439 1437 1435 1437 1439 1444 1444 1443 1441 1440 1438 1438 1438 1437 1437 1437 1437 1436 1434 1432 1432 1432 1431 1431 1431 1430 1430 1429 1427 1426 1427 1426 1426 1426 1424 1422
1469 1467 1465 1464 1465 1465 1466 1466 1466 1465 1464 1461 1459 1457 1455 1453 1452 1452 1451 1448 1448 1451 1450 1450 1449 1447 1446 1445 1444 1443 1443 1442 1441 1440 1439 1437 1437 1437 1437 1436 1436 1435 1436 1435 1433 1432 1431 1430 1429 1428 1427 1425 1423 1422
1470 1469 1469 1468 1469 1468 1472 1469 1467 1467 1465 1465 1462 1462 1463 1462 1459 1458 1457 1458 1458 1457 1456 1455 1453 1452 1451 1450 1448 1447 1446 1445 1444 1443 1442 1440 1439 1439 1439 1439 1439 1438 1437 1436 1435 1433 1432 1430 1428 1426 1425 1423 1421 1419
1473 1473 1472 1473 1473 1473 1473 1471 1471 1470 1469 1469 1469 1468 1466 1465 1464 1462 1464 1465 1465 1463 1462 1462 1461 1459 1458 1456 1455 1454 1452 1451 1449 1447 1446 1444 1443 1443 1442 1441 1440 1440 1439 1437 1435 1433 1431 1429 1427 1426 1424 1422 1420 1419
1479 1480 1479 1477 1477 1476 1473 1472 1472 1470 1469 1471 1468 1466 1466 1467 1464 1469 1473 1472 1470 1470 1469 1467 1466 1464 1463 1462 1461 1460 1458 1455 1453 1450 1449 1447 1446 1443 1442 1442 1441 1440 1438 1437 1435 1433 1431 1429 1427 1426 1424 1422 1421 1419
1481 1481 1482 1480 1479 1478 1477 1473 1473 1474 1473 1471 1470 1470 1469 1466 1463 1472 1478 1480 1477 1475 1474 1473 1471 1469 1468 1467 1466 1463 1461 1458 1456 1453 1452 1450 1448 1446 1445 1443 1441 1440 1439 1438 1435 1433 1431 1429 1427 1426 1424 1422 1420 1418
1481 1482 1483 1481 1482 1481 1479 1479 1479 1478 1473 1471 1470 1468 1466 1466 1477 1485 1484 1484 1483 1481 1480 1479 1476 1474 1473 1471 1469 1466 1464 1461 1459 1456 1454 1452 1450 1449 1448 1446 1443 1441 1438 1436 1434 1432 1429 1427 1425 1423 1422 1420 1418 1416
1484 1484 1482 1483 1482 1482 1480 1477 1476 1474 1473 1473 1472 1472 1477 1481 1488 1490 1488 1487 1486 1486 1485 1483 1481 1478 1475 1472 1470 1467 1464 1461 1459 1457 1454 1452 1451 1449 1447 1445 1442 1439 1436 1434 1432 1430 1427 1426 1424 1422 1420 1418 1417 1415
1484 1483 1483 1479 1480 1480 1479 1478 1477 1478 1478 1475 1474 1479 1487 1490 1492 1492 1492 1491 1489 1488 1487 1485 1482 1480 1477 1474 1470 1468 1465 1462 1459 1456 1454 1452 1450 1449 1447 1444 1441 1438 1435 1433 1428 1428 1425 1424 1422 1420 1419 1417 1415 1412
1481 1481 1480 1477 1476 1479 1482 1481 1483 1483 1481 1479 1481 1487 1490 1492 1493 1493 1492 1489 1487 1485 1484 1484 1482 1480 1477 1474 1471 1468 1466 1464 1462 1460 1457 1455 1453 1450 1446 1443 1440 1437 1435 1432 1429 1427 1423 1421 1420 1418 1416 1414 1412 1409
1483 1482 1479 1478 1478 1483 1484 1486 1486 1487 1486 1487 1489 1490 1491 1492 1493 1492 1492 1491 1491 1489 1487 1485 1483 1480 1477 1474 1472 1470 1468 1466 1463 1461 1457 1455 1452 1448 1445 1442 1439 1436 1433 1430 1427 1425 1423 1421 1419 1416 1414 1412 1410 1408
1484 1483 1480 1477 1482 1485 1486 1486 1487 1490 1490 1491 1492 1491 1492 1491 1490 1493 1493 1493 1491 1489 1487 1486 1483 1481 1478 1476 1474 1471 1469 1467 1463 1460 1456 1453 1450 1447 1445 1442 1439 1436 1433 1431 1428 1425 1423 1420 1418 1415 1413 1411 1409 1406
1482 1480 1479 1479 1481 1482 1483 1485 1486 1491 1492 1492 1490 1490 1490 1490 1492 1495 1494 1492 1491 1490 1488 1486 1484 1481 1479 1476 1473 1471 1469 1466 1461 1459 1455 1452 1449 1446 1445 1442 1440 1437 1434 1431 1428 1425 1423 1420 1418 1415 1412 1410 1408 1405